Regional Weather Roundup
Issued by NWS Sioux Falls, SD

Home | Current Version | Previous Version | Text Only | Print | Product List | Glossary Off
Versions: 1 2 3 4 5 6 7 8 9 10 11 12 13 14 15 16 17 18 19 20 21 22 23 24 25 26 27 28 29 30 31 32 33 34 35 36 37 38 39 40 41 42 43 44 45 46 47 48 49 50

909
ASUS43 KFSD 051410
RWRFSD

WEATHER ROUNDUP FOR SE SOUTH DAKOTA/SW MINNESOTA/NW IOWA
NATIONAL WEATHER SERVICE SIOUX FALLS SD
800 AM CST MON DEC 05 2016

NOTE: "FAIR" INDICATES FEW OR NO CLOUDS BELOW 12,000 FEET WITH NO
SIGNIFICANT WEATHER AND OR OBSTRUCTIONS TO VISIBILITY.


SDZ038>040-050-052>070-051500-
SOUTHEAST SOUTH DAKOTA

CITY           SKY/WX    TMP DP  RH WIND       PRES   REMARKS
BROOKINGS      CLOUDY    32  29  88 SE13      29.56F WCI  22
CHAMBERLAIN    CLOUDY    32  27  83 SE6       29.49R WCI  26
HURON          CLOUDY    30  27  88 SE8       29.53S WCI  22
MADISON        FAIR      32  32 100 S10       29.56S WCI  24
MITCHELL       PTCLDY    33  28  81 SE9       29.54F WCI  25
SIOUX FALLS    CLOUDY    37  30  75 S15       29.58F
WINNER         FAIR      42  24  49 SW15      29.46F
YANKTON        CLOUDY    37  27  65 S8        29.59S
$$

MNZ071-072-080-081-089-090-097-098-051500-
SOUTHWEST MINNESOTA

CITY           SKY/WX    TMP DP  RH WIND       PRES   REMARKS
FAIRMONT       CLOUDY    34  31  88 S12       29.72F WCI  25
JACKSON        CLOUDY    34  30  86 SE13G18   29.68S WCI  25
LUVERNE        CLOUDY    34  30  86 S12       29.62F WCI  25
MARSHALL       PTCLDY    33  29  85 SE12      29.62F WCI  24
MONTEVIDEO     PTCLDY    30  30 100 S9        29.66R WCI  22
PIPESTONE      CLOUDY    34  30  86 S9        29.59F WCI  26
REDWOOD FALLS  CLOUDY    33  30  88 SE13      29.66F WCI  24
TRACY          CLOUDY    36  32  85 S8        29.62F
WINDOM         CLOUDY    36  30  80 SE15      29.65S
WORTHINGTON    CLOUDY    33  30  88 S16       29.63F WCI  23
$$

IAZ001>003-012>014-020>022-031-032-NEZ013-014-SDZ071-051500-
NORTHWEST IOWA

CITY           SKY/WX    TMP DP  RH WIND       PRES   REMARKS
CHEROKEE       CLOUDY    36  32  85 S12       29.69S
DENISON        CLOUDY    36  32  87 S15       29.72S
ESTHERVILLE    CLOUDY    33  32  96 S16       29.69F WCI  23
LE MARS        CLOUDY    37  30  75 S13       29.66F
ORANGE CITY    CLOUDY    36  32  87 S10       29.64F
SHELDON        CLOUDY    36  32  87 S13G18    29.63F
SIOUX CITY     CLOUDY    40  30  67 S14G21    29.67F
SPENCER        CLOUDY    35  31  85 S18       29.68F WCI  24
STORM LAKE     CLOUDY    34  30  86 S15       29.70F WCI  24
$$

ABBREVIATIONS USED IN REMARKS
   TC - TEMPERATURE IN CELSIUS
  WCI - WIND CHILL INDEX
   HX - HEAT INDEX
  VSB - VISIBILITY





USA.gov is the U.S. government's official web portal to all federal, state and local government web resources and services.